Wind_Speed
3 4 4 5 5 5 5 6 7 7 5 5 5 5 6 5 4 4 5 5 5 5 4 2 2 1 1 1 2 2 3 3 3 3 3 4 4 4 4 5 5 5 5
4 5 5 5 5 5 5 6 7 8 6 5 5 5 6 6 5 5 6 6 6 6 5 4 3 3 3 3 3 3 4 5 5 5 4 4 4 5 5 5 6 6 6
3 4 4 5 6 6 6 5 6 7 6 6 5 5 6 6 7 7 7 7 7 6 6 6 5 5 5 4 4 4 5 6 6 6 6 7 6 6 7 7 7 7 7
3 3 4 4 4 4 4 4 4 5 6 6 6 7 7 7 7 7 8 8 7 7 7 7 7 7 7 6 6 6 6 6 6 7 7 7 7 8 8 9 8 8 8
3 3 4 5 4 5 5 5 5 6 6 6 7 8 8 9 9 9 9 8 8 8 8 8 9 8 8 9 8 8 8 8 8 8 9 9 9 9 9 9 10 9 9
4 4 4 5 5 5 6 6 6 6 7 8 8 9 9 9 9 10 10 9 9 10 10 10 10 9 9 10 10 9 10 10 10 10 10 10 10 10 10 10 11 10 10
5 5 5 5 6 6 7 7 7 8 8 9 10 10 11 11 11 10 11 12 12 12 12 12 11 11 11 11 11 10 10 10 11 11 11 11 12 11 11 12 12 12 12
5 6 7 6 7 7 7 7 8 8 9 10 11 12 13 12 12 13 13 13 14 14 13 13 14 13 13 12 12 12 11 12 12 12 12 12 13 12 12 12 13 13 13
5 5 6 7 7 8 8 8 8 8 8 10 10 11 12 12 13 14 15 13 13 13 13 14 14 13 13 13 13 13 13 13 14 14 13 14 13 13 13 13 14 14 14
6 6 7 8 8 9 9 9 9 9 9 10 11 11 11 12 12 13 14 14 14 14 15 15 15 15 14 15 15 14 14 14 14 14 14 14 14 14 14 14 15 15 15
6 6 7 8 9 10 10 11 10 10 11 11 11 11 12 13 13 14 14 15 15 15 16 16 16 16 15 16 16 15 15 14 14 15 15 15 16 16 16 15 16 16 16
6 7 7 8 8 10 10 11 12 12 12 12 13 13 13 14 14 15 15 15 16 16 17 17 17 17 17 17 17 17 17 17 16 16 17 17 17 17 17 17 17 18 18
6 7 7 8 9 9 10 11 11 12 12 13 14 15 15 15 15 16 16 17 17 18 18 18 18 18 18 19 19 19 19 19 19 19 19 19 18 18 18 19 19 19 19
7 7 8 9 9 10 11 12 12 12 13 13 14 15 15 15 16 17 18 18 17 18 19 19 20 19 19 20 20 19 20 20 20 20 20 20 20 20 21 21 21 21 21
9 9 10 11 12 12 12 12 13 14 15 15 15 15 16 17 17 17 18 19 19 19 20 20 20 21 21 21 21 21 21 21 21 21 21 21 22 22 22 22 22 22 22
12 13 13 13 14 14 14 15 16 16 17 17 17 17 17 17 18 17 18 19 19 20 20 21 22 22 22 22 22 21 21 21 22 22 23 23 23 23 23 23 23 23 23
15 16 16 17 17 17 17 18 19 19 19 19 19 19 19 19 20 20 20 21 21 21 21 22 23 23 23 23 23 24 24 23 23 24 24 24 24 24 25 25 26 25 25
17 18 18 19 19 19 20 20 20 20 21 21 22 22 22 22 22 22 22 22 22 23 23 23 24 25 25 25 25 26 26 26 26 26 26 26 26 26 26 26 26 27 27
19 19 20 20 20 21 21 21 22 22 22 23 23 24 24 24 23 23 23 23 24 25 25 25 25 26 27 27 26 26 26 26 25 26 25 26 27 27 27 28 27 28 28
21 21 22 22 23 23 23 23 24 24 24 25 25 25 26 25 25 24 25 26 26 26 26 26 27 27 27 27 28 28 27 27 27 27 27 27 27 28 28 28 28 28 29
22 23 23 23 24 24 25 25 26 26 27 26 27 27 27 27 26 27 27 27 27 28 28 28 29 28 28 29 29 28 28 28 27 27 27 28 28 28 29 29 29 30 30
25 25 26 26 26 26 27 28 28 28 29 28 28 28 29 29 28 28 28 28 29 29 30 30 30 30 30 30 30 30 29 29 29 29 29 30 30 30 30 30 30 31 31
27 27 28 28 28 28 29 29 30 29 29 30 30 30 30 30 30 30 30 30 30 30 31 31 31 31 30 31 31 30 30 30 30 31 31 31 31 31 30 30 31 32 32
29 29 30 31 30 30 30 31 31 31 31 32 31 30 30 29 30 30 30 30 30 31 31 31 31 31 31 31 31 31 31 31 32 32 32 31 31 32 32 32 32 32 33
30 31 31 32 31 31 31 31 30 30 30 30 31 30 30 30 30 30 30 30 30 30 30 31 31 31 31 32 32 33 32 32 32 32 33 32 32 33 33 33 33 33 33
32 32 32 32 32 31 31 32 31 30 30 29 29 30 30 30 30 30 31 31 31 31 31 31 32 32 32 33 33 33 33 33 34 33 33 33 33 34 34 34 34 34 34
Wind_Direction
247 242 242 234 230 232 230 225 222 221 214 213 218 219 214 207 210 224 228 228 225 216 210 220 244 270 278 289 284 288 294 299 300 293 302 295 295 291 288 286 284 279 274
239 229 233 230 227 226 227 229 228 225 219 215 220 218 224 228 231 231 237 237 238 231 223 231 244 261 268 287 284 284 285 284 283 284 285 286 291 297 293 288 286 277 272
244 236 232 234 229 230 231 233 234 233 229 226 221 221 229 238 236 235 237 240 242 237 231 237 250 261 268 275 279 280 284 280 277 277 280 280 283 285 291 286 288 280 275
252 237 230 231 228 229 236 236 242 242 235 231 225 231 235 243 241 241 243 241 240 240 242 249 255 263 266 272 276 273 279 280 279 278 277 280 282 283 287 285 287 283 275
262 246 239 249 245 242 243 247 251 246 240 236 235 242 247 254 253 249 248 246 243 244 247 253 257 263 268 271 273 271 272 274 277 281 280 280 283 283 284 286 283 280 277
273 267 262 255 248 245 248 251 250 250 250 249 249 251 253 253 250 246 244 243 245 250 251 256 261 264 269 272 270 271 269 271 275 279 280 280 281 282 281 281 280 278 276
267 261 263 258 256 256 254 255 257 257 259 256 256 258 258 254 252 250 249 248 249 251 254 261 266 266 270 268 271 273 271 272 275 277 278 280 281 283 278 278 278 276 273
259 258 256 258 260 261 258 259 262 261 263 264 259 258 257 258 257 254 253 252 250 250 254 260 264 265 268 270 272 275 276 277 274 276 278 280 281 282 280 280 278 275 273
261 267 260 260 260 262 264 268 269 268 269 272 270 264 263 259 260 256 252 256 255 255 253 258 262 266 271 274 274 274 276 278 275 275 278 281 281 281 282 280 278 274 273
265 266 267 263 264 266 270 271 269 271 274 277 280 275 269 264 264 264 256 257 259 257 256 260 263 267 270 271 271 269 273 276 276 275 276 278 281 283 282 280 277 275 272
280 280 281 274 269 268 270 271 272 276 277 278 280 279 272 270 267 263 260 258 257 259 260 263 267 268 270 270 270 271 272 273 274 274 274 277 280 281 281 280 278 276 275
299 295 288 282 280 277 276 277 278 282 283 280 280 281 277 273 269 266 262 263 260 258 261 263 265 268 270 270 270 271 272 273 273 274 276 278 279 280 279 278 277 277 277
308 299 293 291 290 287 285 282 285 288 289 286 284 282 279 276 272 270 268 264 265 260 258 260 264 266 267 267 269 270 271 272 273 274 275 279 278 278 278 277 278 277 276
305 303 298 296 295 293 290 286 288 289 290 291 290 289 286 280 276 274 271 265 264 261 258 260 263 265 265 266 268 270 271 271 272 273 275 277 278 280 279 278 279 276 275
302 299 298 297 293 293 291 286 285 288 288 289 290 293 291 286 282 280 275 270 267 264 262 263 266 266 266 267 266 267 269 271 272 273 273 275 276 278 278 278 277 277 276
299 300 295 295 293 289 286 286 285 284 285 286 287 289 291 291 287 281 278 276 271 268 267 265 267 267 267 267 267 267 268 271 273 274 275 274 273 275 278 277 276 275 275
295 297 294 290 288 286 285 285 284 284 284 284 286 287 287 288 288 284 281 278 274 272 269 267 267 267 269 267 267 268 267 269 272 273 276 277 276 276 277 276 277 276 276
290 292 292 289 286 285 285 284 283 283 284 284 284 285 284 285 285 285 282 279 275 273 272 269 268 267 267 266 267 268 269 270 272 274 276 277 276 276 276 277 277 277 276
288 290 290 290 288 286 284 284 284 283 283 283 283 283 284 285 285 283 282 281 278 275 272 271 269 269 269 268 268 269 269 270 272 275 277 278 277 275 275 276 276 275 275
287 289 289 290 288 287 284 284 283 284 283 283 283 283 283 284 283 283 282 281 279 277 275 274 273 273 272 270 268 268 268 269 273 275 276 277 278 277 277 276 275 274 273
286 286 287 289 288 288 287 285 284 284 284 284 283 283 283 283 284 283 282 281 279 277 276 276 276 274 273 271 269 269 270 271 272 274 275 276 277 278 277 277 276 276 275
286 285 285 286 286 286 285 284 284 285 285 284 284 284 284 282 282 282 281 281 279 278 277 277 275 274 273 274 270 269 269 270 272 273 274 275 276 277 277 277 275 274 275
286 287 286 286 286 286 285 284 284 285 284 284 285 284 283 282 281 283 281 279 279 279 279 279 277 275 273 274 271 270 269 270 272 274 275 276 276 276 277 278 277 277 276
287 286 286 286 286 285 285 285 284 284 284 284 285 285 286 285 281 281 280 280 280 281 280 278 278 277 275 274 273 272 272 273 273 275 276 276 276 277 278 279 279 278 277
287 287 286 286 286 286 285 286 286 285 286 286 286 286 285 284 282 281 281 281 280 280 279 278 279 278 276 274 273 273 273 274 275 276 277 278 277 277 277 278 279 278 279
288 288 287 287 286 285 285 285 285 286 287 286 285 285 284 283 282 281 281 281 280 280 278 277 277 277 276 275 274 273 274 275 275 276 277 278 278 278 278 278 278 277 279
Height
5903 5903 5903 5903 5904 5904 5904 5904 5903 5904 5904 5904 5905 5905 5905 5905 5906 5906 5907 5907 5907 5906 5906 5906 5906 5905 5904 5903 5903 5903 5902 5902 5901 5900 5900 5899 5898 5898 5897 5896 5896 5895 5895
5902 5901 5902 5902 5902 5903 5903 5902 5902 5902 5903 5903 5904 5904 5904 5905 5905 5905 5905 5905 5905 5905 5905 5905 5904 5904 5903 5903 5902 5902 5901 5901 5900 5899 5899 5898 5897 5897 5896 5895 5894 5894 5893
5901 5901 5901 5901 5901 5901 5901 5901 5901 5901 5902 5902 5903 5903 5903 5903 5904 5904 5904 5904 5904 5904 5904 5904 5903 5903 5902 5902 5901 5900 5900 5899 5899 5898 5897 5897 5896 5895 5895 5894 5893 5892 5892
5900 5900 5900 5900 5900 5900 5900 5900 5900 5900 5901 5901 5901 5902 5902 5902 5902 5901 5902 5902 5902 5902 5902 5902 5901 5901 5901 5900 5899 5899 5898 5897 5897 5896 5896 5895 5894 5894 5893 5892 5891 5891 5890
5899 5899 5899 5899 5898 5899 5899 5899 5899 5899 5900 5900 5900 5900 5900 5900 5900 5899 5900 5900 5900 5900 5900 5900 5899 5899 5898 5898 5897 5896 5896 5895 5895 5894 5893 5893 5892 5891 5891 5890 5889 5889 5888
5897 5897 5897 5897 5897 5898 5898 5897 5898 5898 5898 5898 5898 5898 5898 5898 5898 5898 5898 5898 5898 5898 5898 5897 5897 5897 5896 5896 5895 5894 5893 5893 5892 5892 5891 5891 5890 5889 5888 5887 5887 5886 5886
5896 5896 5896 5896 5896 5896 5896 5896 5896 5896 5896 5896 5896 5896 5896 5895 5895 5895 5895 5895 5895 5895 5895 5895 5895 5894 5893 5893 5892 5891 5891 5890 5890 5889 5888 5888 5887 5886 5885 5884 5884 5883 5883
5894 5894 5894 5894 5894 5894 5894 5894 5894 5894 5894 5893 5893 5893 5893 5893 5893 5892 5892 5892 5892 5892 5892 5892 5892 5891 5890 5890 5889 5889 5888 5887 5887 5886 5885 5884 5884 5883 5882 5881 5880 5880 5879
5892 5892 5892 5892 5892 5892 5892 5892 5892 5892 5891 5891 5890 5890 5890 5890 5890 5889 5889 5889 5889 5889 5888 5888 5888 5888 5887 5887 5886 5885 5885 5884 5883 5882 5882 5881 5880 5880 5879 5878 5877 5876 5876
5891 5890 5890 5890 5890 5890 5890 5889 5889 5889 5888 5888 5887 5887 5887 5886 5886 5886 5886 5886 5886 5886 5885 5885 5884 5884 5883 5883 5883 5882 5881 5880 5879 5878 5878 5878 5877 5876 5875 5874 5873 5872 5872
5888 5888 5888 5887 5887 5887 5887 5886 5886 5886 5885 5885 5884 5883 5883 5882 5882 5882 5882 5882 5882 5882 5881 5881 5880 5880 5879 5879 5878 5878 5877 5876 5876 5875 5874 5873 5873 5872 5871 5869 5869 5868 5867
5886 5886 5885 5885 5884 5884 5884 5883 5883 5882 5882 5881 5880 5880 5879 5878 5878 5877 5877 5877 5877 5877 5877 5877 5876 5876 5875 5875 5874 5873 5872 5872 5871 5871 5870 5869 5868 5867 5866 5865 5864 5863 5862
5885 5884 5883 5883 5882 5881 5881 5880 5879 5879 5878 5878 5877 5876 5875 5874 5874 5873 5873 5872 5872 5872 5872 5872 5871 5871 5871 5870 5869 5868 5867 5866 5866 5865 5865 5864 5863 5862 5861 5860 5858 5857 5857
5883 5882 5881 5880 5879 5878 5877 5877 5876 5876 5875 5874 5873 5872 5870 5869 5869 5868 5867 5867 5867 5867 5867 5867 5866 5865 5865 5864 5863 5863 5862 5861 5860 5860 5859 5858 5857 5856 5855 5854 5853 5852 5851
5880 5879 5878 5877 5876 5875 5874 5873 5873 5872 5871 5870 5869 5868 5866 5865 5864 5863 5862 5861 5862 5862 5861 5861 5860 5860 5859 5858 5858 5857 5856 5855 5854 5853 5852 5851 5851 5850 5849 5848 5846 5846 5845
5876 5875 5874 5873 5872 5871 5870 5869 5869 5868 5867 5865 5864 5863 5861 5860 5858 5857 5856 5855 5855 5855 5855 5855 5854 5853 5852 5852 5851 5850 5850 5849 5848 5847 5846 5845 5844 5843 5842 5841 5840 5839 5838
5872 5871 5869 5868 5867 5866 5865 5864 5863 5862 5861 5860 5858 5857 5856 5855 5853 5852 5851 5849 5849 5848 5848 5848 5847 5846 5845 5844 5844 5843 5842 5841 5840 5839 5838 5838 5836 5836 5835 5834 5833 5832 5831
5868 5866 5864 5862 5861 5860 5859 5858 5857 5856 5855 5854 5853 5851 5850 5848 5847 5845 5844 5843 5842 5841 5841 5841 5840 5838 5837 5837 5836 5835 5834 5834 5833 5832 5831 5830 5829 5828 5827 5826 5825 5824 5823
5862 5861 5859 5857 5856 5854 5853 5852 5851 5850 5849 5847 5846 5844 5843 5841 5840 5839 5837 5836 5834 5833 5832 5832 5832 5831 5830 5829 5828 5827 5827 5826 5825 5824 5823 5822 5821 5820 5819 5818 5817 5816 5815
5856 5855 5853 5851 5850 5848 5846 5845 5844 5843 5841 5840 5839 5837 5836 5834 5833 5831 5830 5828 5827 5825 5824 5824 5823 5823 5822 5821 5820 5819 5819 5818 5817 5816 5815 5814 5813 5811 5810 5809 5808 5807 5806
5850 5849 5847 5845 5843 5841 5839 5838 5837 5836 5834 5833 5831 5829 5828 5826 5825 5823 5822 5820 5818 5817 5816 5815 5814 5814 5813 5812 5811 5810 5810 5809 5809 5807 5806 5806 5804 5803 5801 5800 5799 5798 5797
5843 5842 5840 5838 5836 5834 5832 5831 5829 5827 5826 5824 5823 5821 5820 5818 5816 5815 5813 5811 5810 5808 5807 5806 5805 5804 5804 5803 5801 5801 5801 5800 5800 5800 5798 5797 5795 5794 5793 5792 5790 5789 5788
5836 5834 5832 5830 5828 5826 5824 5822 5820 5819 5817 5816 5814 5813 5811 5809 5807 5805 5804 5802 5801 5799 5798 5797 5795 5795 5794 5793 5792 5792 5791 5791 5790 5789 5788 5787 5786 5785 5784 5782 5781 5780 5778
5827 5825 5824 5822 5820 5818 5816 5814 5812 5810 5808 5807 5805 5803 5801 5800 5798 5795 5794 5792 5791 5790 5788 5787 5786 5785 5784 5783 5783 5782 5782 5781 5780 5779 5778 5778 5776 5776 5774 5773 5771 5770 5769
5818 5816 5815 5813 5811 5809 5807 5805 5803 5801 5799 5797 5796 5794 5792 5790 5788 5786 5785 5784 5782 5780 5778 5777 5776 5775 5774 5774 5773 5772 5771 5771 5770 5769 5768 5768 5767 5766 5764 5763 5761 5760 5759
5809 5808 5805 5803 5802 5800 5798 5795 5794 5792 5790 5788 5787 5785 5783 5781 5779 5777 5775 5774 5772 5771 5769 5768 5766 5765 5764 5763 5763 5762 5761 5760 5760 5760 5758 5758 5757 5755 5754 5753 5751 5750 5748